TimeMDT,TemperatureF,Dew PointF,Humidity,Sea Level PressureIn,VisibilityMPH,Wind Direction,Wind SpeedMPH,Gust SpeedMPH,PrecipitationIn,Events,Conditions,WindDirDegrees,DateUTC
12:51 AM,82.0,48.9,31,29.93,10.0,ESE,9.2,-,N/A,,Partly Cloudy,110,2013-09-05 06:51:00
1:51 AM,80.1,48.9,34,29.92,10.0,East,4.6,-,N/A,,Partly Cloudy,100,2013-09-05 07:51:00
2:51 AM,78.1,50.0,37,29.92,10.0,Calm,Calm,-,N/A,,Partly Cloudy,0,2013-09-05 08:51:00
3:51 AM,78.1,51.1,39,29.91,10.0,Calm,Calm,-,N/A,,Partly Cloudy,0,2013-09-05 09:51:00
4:51 AM,75.9,52.0,43,29.91,10.0,NNW,5.8,-,N/A,,Partly Cloudy,340,2013-09-05 10:51:00
5:51 AM,73.9,51.1,45,29.93,10.0,NNW,3.5,-,N/A,,Partly Cloudy,340,2013-09-05 11:51:00
6:51 AM,73.0,50.0,44,29.95,10.0,NNE,8.1,-,N/A,,Partly Cloudy,20,2013-09-05 12:51:00
7:51 AM,73.9,51.1,45,29.97,10.0,North,6.9,-,N/A,,Scattered Clouds,360,2013-09-05 13:51:00
8:51 AM,78.1,53.1,42,29.98,10.0,North,5.8,-,N/A,,Scattered Clouds,10,2013-09-05 14:51:00
9:51 AM,82.9,53.1,36,29.99,10.0,SSE,8.1,-,N/A,,Partly Cloudy,150,2013-09-05 15:51:00
10:51 AM,86.0,50.0,29,29.98,10.0,SE,10.4,18.4,N/A,,Partly Cloudy,140,2013-09-05 16:51:00
11:51 AM,89.1,45.0,22,29.96,10.0,East,16.1,23.0,N/A,,Partly Cloudy,90,2013-09-05 17:51:00
12:51 PM,90.0,44.1,20,29.94,10.0,ESE,13.8,19.6,N/A,,Partly Cloudy,120,2013-09-05 18:51:00
1:51 PM,90.0,43.0,19,29.92,10.0,Variable,4.6,-,N/A,,Partly Cloudy,0,2013-09-05 19:51:00
2:51 PM,91.0,42.1,18,29.89,10.0,SE,4.6,16.1,N/A,,Partly Cloudy,140,2013-09-05 20:51:00
3:51 PM,93.0,41.0,16,29.88,10.0,East,9.2,-,N/A,,Partly Cloudy,80,2013-09-05 21:51:00
4:51 PM,91.9,41.0,17,29.87,10.0,East,9.2,16.1,N/A,,Partly Cloudy,80,2013-09-05 22:51:00
5:51 PM,91.0,39.9,17,29.86,10.0,East,11.5,-,N/A,,Partly Cloudy,80,2013-09-05 23:51:00
6:51 PM,90.0,39.0,17,29.87,10.0,East,11.5,-,N/A,,Partly Cloudy,90,2013-09-06 00:51:00
7:51 PM,87.1,37.9,18,29.88,10.0,East,12.7,-,N/A,,Partly Cloudy,80,2013-09-06 01:51:00
8:51 PM,84.0,39.9,21,29.91,10.0,East,8.1,-,N/A,,Partly Cloudy,80,2013-09-06 02:51:00
9:51 PM,82.9,39.9,22,29.92,10.0,East,6.9,-,N/A,,Partly Cloudy,90,2013-09-06 03:51:00
10:51 PM,84.0,48.9,29,29.92,10.0,East,11.5,-,N/A,,Scattered Clouds,100,2013-09-06 04:51:00
11:51 PM,84.0,52.0,33,29.91,10.0,East,12.7,-,N/A,,Mostly Cloudy,100,2013-09-06 05:51:00